{"data":{"norad_id":59182,"intl_designator":"2024-045E","name":"STARLINK-31411","alt_names":[],"object_type":"PAYLOAD","status":"ACTIVE","operator":null,"country":"US","launch_date":"2024-03-10","launch_site_code":"AFETR","launch_vehicle":null,"mission":null,"orbit_class":"UNKNOWN","rcs_meters":null,"size_class":null,"mass_kg":null,"dimensions":null,"purposes":["comms"],"wikipedia_slug":null,"has_3d_model":false,"image_url":null,"decayed_at":null,"tle_current":{"epoch":"2026-05-25T01:17:44.405088Z","epoch_age_seconds":73909,"freshness":"FRESH","line1":"1 59182U 24045E   26145.05398617  .00003687  00000+0  14341-3 0  9996","line2":"2 59182  43.0038  20.9931 0001644 264.2599  95.8065 15.27584797124848","mean_motion":15.27584797,"eccentricity":0.0001644,"inclination_deg":43.0038,"raan_deg":20.9931,"arg_perigee_deg":264.2599,"mean_anomaly_deg":95.8065,"bstar":0.00014341,"rev_number":12484,"period_min":94.26645269238,"perigee_km":481.90675550077,"apogee_km":484.16270876629,"semimajor_km":6861.1717321335,"source":"CELESTRAK","updated_at":"2026-05-25T13:38:18.859475Z"}}}